�������l�o���
Date,Time,MP-1(��Sv/h),MP-2(��Sv/h),MP-3(��Sv/h),MP-4(��Sv/h),MP-5(��Sv/h),MP-6(��Sv/h),MP-7(��Sv/h),����,����(m/s),���J
2022/11/26,00:00,0.152,0.137,0.215,0.210,0.212,0.119,0.077,��쐼,7.6,��
2022/11/26,00:10,0.151,0.138,0.214,0.209,0.211,0.119,0.077,��쐼,6.8,��
2022/11/26,00:20,0.152,0.137,0.215,0.210,0.210,0.119,0.077,��쐼,7.1,��
2022/11/26,00:30,0.152,0.137,0.214,0.211,0.212,0.120,0.077,��쐼,7.3,��
2022/11/26,00:40,0.152,0.137,0.213,0.211,0.213,0.120,0.077,��쐼,7.2,��
2022/11/26,00:50,0.151,0.137,0.213,0.211,0.211,0.120,0.077,��쐼,7.3,��
2022/11/26,01:00,0.151,0.137,0.214,0.210,0.212,0.120,0.076,��쐼,7.5,��
2022/11/26,01:10,0.152,0.136,0.214,0.211,0.212,0.120,0.077,��,7.5,��
2022/11/26,01:20,0.152,0.137,0.215,0.211,0.211,0.120,0.076,��,7.6,��
2022/11/26,01:30,0.152,0.137,0.215,0.209,0.213,0.120,0.078,��쐼,7.5,��
2022/11/26,01:40,0.152,0.137,0.214,0.209,0.212,0.120,0.077,��쐼,8.1,��
2022/11/26,01:50,0.151,0.137,0.213,0.211,0.212,0.120,0.077,��쐼,8.8,��
2022/11/26,02:00,0.151,0.138,0.214,0.210,0.211,0.120,0.077,��쐼,7.6,��
2022/11/26,02:10,0.152,0.137,0.215,0.210,0.211,0.121,0.077,��쐼,9.8,��
2022/11/26,02:20,0.152,0.137,0.213,0.211,0.211,0.120,0.077,��쐼,8.4,��
2022/11/26,02:30,0.152,0.137,0.214,0.210,0.213,0.119,0.077,��쐼,8.3,��
2022/11/26,02:40,0.152,0.138,0.213,0.210,0.211,0.119,0.077,��쐼,7.7,��
2022/11/26,02:50,0.151,0.137,0.215,0.211,0.212,0.119,0.076,��쐼,7.3,��
2022/11/26,03:00,0.151,0.137,0.214,0.210,0.211,0.120,0.077,��쐼,8.4,��
2022/11/26,03:10,0.151,0.137,0.214,0.209,0.211,0.120,0.076,��쐼,8.1,��
2022/11/26,03:20,0.151,0.136,0.214,0.210,0.212,0.119,0.077,��,6.6,��
2022/11/26,03:30,0.152,0.137,0.213,0.209,0.211,0.119,0.076,��쐼,6.1,��
2022/11/26,03:40,0.151,0.137,0.214,0.210,0.212,0.119,0.076,��,5.7,��
2022/11/26,03:50,0.151,0.136,0.213,0.209,0.211,0.120,0.076,��,6.5,��
2022/11/26,04:00,0.151,0.137,0.214,0.210,0.212,0.120,0.076,��,6.0,��
2022/11/26,04:10,0.151,0.137,0.213,0.210,0.212,0.120,0.077,��,5.5,��
2022/11/26,04:20,0.151,0.136,0.213,0.210,0.211,0.120,0.077,��,5.1,��
2022/11/26,04:30,0.152,0.136,0.214,0.210,0.212,0.120,0.076,��쓌,5.2,��
2022/11/26,04:40,0.150,0.136,0.214,0.210,0.210,0.119,0.077,��,4.2,��
2022/11/26,04:50,0.150,0.136,0.214,0.209,0.211,0.119,0.076,��,4.2,��
2022/11/26,05:00,0.151,0.137,0.214,0.209,0.213,0.119,0.077,��쓌,3.7,��
2022/11/26,05:10,0.151,0.136,0.214,0.210,0.211,0.119,0.077,��,3.7,��
2022/11/26,05:20,0.151,0.136,0.213,0.210,0.212,0.120,0.076,��,5.1,��
2022/11/26,05:30,0.151,0.137,0.215,0.210,0.211,0.120,0.076,��,4.7,��
2022/11/26,05:40,0.150,0.136,0.213,0.210,0.211,0.120,0.076,��쐼,5.5,��
2022/11/26,05:50,0.151,0.137,0.213,0.209,0.211,0.120,0.077,��,4.6,��
2022/11/26,06:00,0.150,0.136,0.214,0.211,0.211,0.120,0.077,��쐼,3.8,��
2022/11/26,06:10,0.151,0.137,0.214,0.210,0.213,0.119,0.077,��쐼,5.0,��
2022/11/26,06:20,0.151,0.136,0.214,0.210,0.211,0.119,0.077,��쐼,5.0,��
2022/11/26,06:30,0.150,0.136,0.214,0.211,0.212,0.119,0.076,��쐼,5.7,��
2022/11/26,06:40,0.152,0.137,0.214,0.209,0.211,0.119,0.077,��,4.8,��
2022/11/26,06:50,0.151,0.136,0.213,0.209,0.212,0.119,0.076,��쐼,6.4,��
2022/11/26,07:00,0.151,0.136,0.214,0.209,0.211,0.119,0.077,��쐼,6.5,��
2022/11/26,07:10,0.151,0.136,0.212,0.210,0.211,0.119,0.077,��쐼,6.2,��
2022/11/26,07:20,0.151,0.137,0.214,0.209,0.212,0.119,0.076,��쐼,6.0,��
2022/11/26,07:30,0.151,0.136,0.214,0.209,0.210,0.120,0.077,��쐼,7.1,��
2022/11/26,07:40,0.151,0.136,0.213,0.210,0.213,0.120,0.077,��쐼,5.7,��
2022/11/26,07:50,0.152,0.137,0.214,0.208,0.210,0.121,0.077,��쐼,7.5,��
2022/11/26,08:00,0.150,0.137,0.213,0.210,0.213,0.120,0.077,��쐼,8.8,��
2022/11/26,08:10,0.151,0.137,0.213,0.210,0.210,0.120,0.076,��쐼,8.2,��
2022/11/26,08:20,0.150,0.136,0.214,0.209,0.212,0.120,0.077,��쐼,7.5,�L
2022/11/26,08:30,0.152,0.136,0.214,0.210,0.210,0.120,0.075,��쐼,6.9,��
2022/11/26,08:40,0.152,0.136,0.214,0.209,0.212,0.120,0.076,��쐼,7.9,�L
2022/11/26,08:50,0.151,0.136,0.214,0.209,0.210,0.120,0.076,��쐼,8.1,�L
2022/11/26,09:00,0.151,0.135,0.215,0.209,0.213,0.120,0.077,��쐼,7.5,��
2022/11/26,09:10,0.151,0.137,0.213,0.211,0.210,0.119,0.075,��쐼,7.0,��
2022/11/26,09:20,0.150,0.136,0.214,0.209,0.213,0.120,0.077,��쐼,9.2,��
2022/11/26,09:30,0.151,0.136,0.215,0.211,0.210,0.120,0.077,��,7.6,��
2022/11/26,09:40,0.151,0.137,0.213,0.209,0.212,0.120,0.077,��,8.3,��
2022/11/26,09:50,0.151,0.136,0.214,0.210,0.210,0.120,0.077,��,8.3,��
2022/11/26,10:00,0.150,0.136,0.213,0.209,0.213,0.120,0.077,��쐼,7.7,��
2022/11/26,10:10,0.152,0.137,0.214,0.210,0.211,0.120,0.077,��쐼,7.0,��
2022/11/26,10:20,0.150,0.137,0.214,0.209,0.212,0.119,0.077,��,7.8,��
2022/11/26,10:30,0.151,0.137,0.214,0.210,0.212,0.120,0.076,��,7.0,�L
2022/11/26,10:40,0.151,0.137,0.213,0.209,0.211,0.120,0.076,��,7.0,�L
2022/11/26,10:50,0.152,0.136,0.214,0.211,0.212,0.120,0.077,��,7.3,�L
2022/11/26,11:00,0.152,0.136,0.213,0.209,0.212,0.119,0.077,��,6.8,�L
2022/11/26,11:10,0.152,0.137,0.214,0.210,0.212,0.120,0.076,��,7.5,�L
2022/11/26,11:20,0.152,0.137,0.215,0.210,0.211,0.120,0.078,��,8.1,�L
2022/11/26,11:30,0.153,0.137,0.216,0.211,0.214,0.121,0.077,��,7.1,�L
2022/11/26,11:40,0.153,0.137,0.215,0.210,0.213,0.121,0.078,��,6.4,�L
2022/11/26,11:50,0.154,0.138,0.217,0.212,0.214,0.123,0.080,��쐼,5.8,�L
2022/11/26,12:00,0.153,0.138,0.216,0.211,0.214,0.122,0.079,��쐼,6.0,�L
2022/11/26,12:10,0.153,0.139,0.216,0.211,0.212,0.123,0.079,��,6.4,�L
2022/11/26,12:20,0.152,0.138,0.217,0.211,0.216,0.121,0.079,��,7.3,�L
2022/11/26,12:30,0.152,0.138,0.214,0.210,0.212,0.122,0.078,��,7.9,�L
2022/11/26,12:40,0.151,0.138,0.215,0.211,0.212,0.121,0.078,��,8.7,�L
2022/11/26,12:50,0.153,0.137,0.214,0.210,0.212,0.121,0.077,��,7.6,�L
2022/11/26,13:00,0.152,0.137,0.215,0.211,0.212,0.121,0.077,��쐼,6.5,�L
2022/11/26,13:10,0.153,0.137,0.212,0.209,0.211,0.120,0.078,��쐼,7.6,��
2022/11/26,13:20,0.151,0.138,0.214,0.210,0.211,0.120,0.077,��쐼,7.9,��
2022/11/26,13:30,0.152,0.136,0.212,0.210,0.212,0.120,0.076,��쐼,7.6,��
2022/11/26,13:40,0.151,0.137,0.214,0.209,0.210,0.121,0.077,��쐼,6.0,��
2022/11/26,13:50,0.151,0.136,0.213,0.210,0.213,0.120,0.077,��쐼,5.9,��
2022/11/26,14:00,0.151,0.136,0.214,0.208,0.209,0.121,0.076,��쐼,5.4,��
2022/11/26,14:10,0.151,0.137,0.213,0.210,0.208,0.120,0.077,��쐼,4.3,��
2022/11/26,14:20,0.152,0.135,0.214,0.209,0.212,0.119,0.076,��,5.6,��
2022/11/26,14:30,0.151,0.135,0.213,0.207,0.212,0.120,0.076,��,6.2,��
2022/11/26,14:40,0.151,0.136,0.214,0.211,0.209,0.120,0.076,��,6.4,��
2022/11/26,14:50,0.151,0.135,0.213,0.209,0.213,0.120,0.076,��,8.1,��
2022/11/26,15:00,0.152,0.137,0.213,0.209,0.211,0.120,0.076,��,7.8,��
2022/11/26,15:10,0.151,0.137,0.213,0.209,0.212,0.120,0.077,��,7.9,��
2022/11/26,15:20,0.152,0.137,0.215,0.210,0.211,0.120,0.077,��,10.1,��
2022/11/26,15:30,0.150,0.136,0.213,0.210,0.212,0.120,0.077,��,8.8,��
2022/11/26,15:40,0.152,0.137,0.214,0.211,0.211,0.119,0.077,��쐼,10.0,��
2022/11/26,15:50,0.151,0.137,0.214,0.209,0.213,0.121,0.076,��쐼,8.8,��
2022/11/26,16:00,0.152,0.137,0.214,0.210,0.211,0.120,0.076,��쐼,7.6,��
2022/11/26,16:10,0.150,0.135,0.214,0.209,0.212,0.120,0.077,��쐼,5.3,��
2022/11/26,16:20,0.152,0.136,0.214,0.211,0.212,0.120,0.077,�쐼,5.3,��
2022/11/26,16:30,0.151,0.137,0.215,0.210,0.213,0.120,0.077,�쐼,4.9,��
2022/11/26,16:40,0.151,0.136,0.213,0.211,0.209,0.120,0.076,�쐼,5.3,��
2022/11/26,16:50,0.150,0.137,0.214,0.209,0.213,0.120,0.077,�쐼,4.1,��
2022/11/26,17:00,0.151,0.137,0.214,0.210,0.210,0.119,0.076,�쐼,4.4,��
2022/11/26,17:10,0.150,0.138,0.213,0.210,0.213,0.120,0.077,�쐼,4.3,��
2022/11/26,17:20,0.152,0.136,0.213,0.210,0.211,0.119,0.076,��쐼,4.3,��
2022/11/26,17:30,0.152,0.137,0.213,0.210,0.212,0.119,0.077,��쐼,4.2,��
2022/11/26,17:40,0.152,0.137,0.214,0.211,0.211,0.120,0.077,�쐼,4.7,��
2022/11/26,17:50,0.152,0.137,0.215,0.211,0.212,0.119,0.077,��쐼,6.5,��
2022/11/26,18:00,0.150,0.137,0.213,0.210,0.212,0.120,0.076,�쐼,6.9,��
2022/11/26,18:10,0.152,0.136,0.214,0.211,0.212,0.120,0.077,�쐼,6.7,��
2022/11/26,18:20,0.151,0.137,0.214,0.210,0.213,0.120,0.077,�쐼,5.8,��
2022/11/26,18:30,0.152,0.137,0.214,0.210,0.211,0.121,0.077,�쐼,5.3,��
2022/11/26,18:40,0.151,0.138,0.214,0.210,0.212,0.120,0.076,�쐼,5.4,��
2022/11/26,18:50,0.152,0.137,0.213,0.211,0.211,0.120,0.077,���쐼,4.5,��
2022/11/26,19:00,0.152,0.137,0.213,0.211,0.212,0.121,0.077,�쐼,4.1,��
2022/11/26,19:10,0.151,0.137,0.214,0.210,0.211,0.120,0.077,�쐼,4.1,��
2022/11/26,19:20,0.152,0.137,0.215,0.210,0.212,0.120,0.077,��,4.2,��
2022/11/26,19:30,0.152,0.137,0.215,0.210,0.212,0.120,0.077,��,3.2,��
2022/11/26,19:40,0.152,0.136,0.214,0.211,0.211,0.120,0.077,��,5.7,��
2022/11/26,19:50,0.151,0.137,0.214,0.210,0.213,0.120,0.077,��,5.9,��
2022/11/26,20:00,0.151,0.138,0.215,0.210,0.210,0.121,0.077,���k��,5.8,��
2022/11/26,20:10,0.152,0.138,0.213,0.210,0.213,0.120,0.077,���k��,4.9,��
2022/11/26,20:20,0.152,0.137,0.214,0.210,0.210,0.120,0.077,��,3.2,��
2022/11/26,20:30,0.151,0.137,0.215,0.211,0.212,0.121,0.078,��,3.1,��
2022/11/26,20:40,0.152,0.136,0.214,0.210,0.213,0.120,0.077,��,2.2,��
2022/11/26,20:50,0.152,0.137,0.214,0.211,0.212,0.121,0.076,���쐼,0.7,��
2022/11/26,21:00,0.152,0.137,0.214,0.211,0.213,0.120,0.076,���쐼,1.1,��
2022/11/26,21:10,0.151,0.137,0.215,0.211,0.212,0.121,0.077,��,1.8,��
2022/11/26,21:20,0.151,0.137,0.214,0.211,0.213,0.120,0.077,�쐼,1.1,��
2022/11/26,21:30,0.152,0.136,0.214,0.211,0.212,0.120,0.077,��,2.7,��
2022/11/26,21:40,0.151,0.137,0.214,0.210,0.213,0.121,0.077,��,2.5,��
2022/11/26,21:50,0.152,0.137,0.215,0.210,0.211,0.120,0.077,���쐼,2.1,��
2022/11/26,22:00,0.151,0.136,0.214,0.212,0.212,0.121,0.077,��,2.1,��
2022/11/26,22:10,0.152,0.137,0.215,0.211,0.212,0.121,0.078,�k�k��,1.1,��
2022/11/26,22:20,0.151,0.136,0.214,0.210,0.211,0.121,0.076,���k��,3.1,��
2022/11/26,22:30,0.151,0.136,0.214,0.210,0.213,0.121,0.077,���k��,3.3,��
2022/11/26,22:40,0.152,0.137,0.214,0.210,0.211,0.121,0.077,���k��,4.0,��
2022/11/26,22:50,0.151,0.137,0.214,0.211,0.213,0.120,0.076,���k��,9.5,��
2022/11/26,23:00,0.152,0.136,0.214,0.210,0.211,0.120,0.077,���k��,11.8,��
2022/11/26,23:10,0.151,0.137,0.215,0.210,0.211,0.120,0.078,���k��,9.2,��
2022/11/26,23:20,0.151,0.137,0.214,0.211,0.212,0.119,0.078,���k��,8.5,��
2022/11/26,23:30,0.152,0.136,0.214,0.210,0.211,0.121,0.078,��,7.5,��
2022/11/26,23:40,0.151,0.137,0.214,0.211,0.213,0.120,0.077,���k��,4.0,��
2022/11/26,23:50,0.152,0.137,0.214,0.210,0.210,0.120,0.077,���k��,4.4,��
